Regional Weather Roundup
Issued by NWS Portland, ME

Home | Current Version | Previous Version | Text Only | Print | Product List | Glossary On
Versions: 1 2 3 4 5 6 7 8 9 10 11 12 13 14 15 16 17 18 19 20 21 22 23 24 25 26 27 28 29 30 31 32 33 34 35 36 37 38 39 40 41 42 43 44 45 46 47 48 49 50
000
ASUS41 KGYX 211710
RWRGYX
WEATHER ROUNDUP FOR MAINE AND NEW HAMPSHIRE
NATIONAL WEATHER SERVICE GRAY ME
100 PM EDT SUN SEP 21 2014

MEZ002-005-006-010-012-015-018-020-021-024-026-027-029-211800-
MAINE

CITY           SKY/WX    TMP DP  RH WIND       PRES   REMARKS
PORTLAND       MOSUNNY   69  63  81 S17G24    29.84F
SANFORD        PTSUNNY   73  64  73 S8        29.84F
BAR HARBOR     MOSUNNY   72  64  78 S16       29.89F
WISCASSET      MOSUNNY   71  64  78 S8        29.87F
ROCKLAND       MOSUNNY   66  63  88 S12       29.87F
FRYEBURG       HVY RAIN  66  62  87 CALM      29.83F FOG
LEWISTONAUBURN CLOUDY    64  61  88 S8        29.85F
AUGUSTA        CLOUDY    64  63  96 S7G18     29.86F FOG
WATERVILLE     CLOUDY    64  59  82 S7        29.81F
BANGOR         LGT RAIN  65  63  93 S16G23    29.87F
GREENVILLE       N/A     65  60  84 S8G23     29.81F
MILLINOCKET    CLOUDY    65  62  90 VRB6      29.86F FOG
HOULTON        CLOUDY    67  60  78 S16G25    29.83F
PRESQUE ISLE   MOSUNNY   70  57  64 S20G28    29.77S
FRENCHVILLE    PTSUNNY   70  56  61 S9G24     29.73F
CARIBOU        MOSUNNY   71  57  61 S23G30    29.76F
$$

NHZ002-005-008-009-011-012-014-211800-
NEW HAMPSHIRE

CITY           SKY/WX    TMP DP  RH WIND       PRES   REMARKS
PORTSMOUTH     CLOUDY    75  67  75 SE10      29.81F
ROCHESTER      PTSUNNY   72  67  84 S7        29.83F
NASHUA         LGT RAIN  74  71  90 CALM      29.82F
MANCHESTER     CLOUDY    73  67  81 S6        29.80F
CONCORD        CLOUDY    70  67  90 S6        29.83F
LACONIA        CLOUDY    70  63  78 S9G18     29.81F
PLYMOUTH       CLOUDY    73  67  81 S7        29.81F
BERLIN         SUNNY     77  60  55 SE13G22   29.80F
WHITEFIELD     SUNNY     77  57  50 S12G18    29.79F
JAFFREY        CLOUDY    71  66  84 S8        29.84F
LEBANON        MOSUNNY   77  62  59 S15G25    29.77F
MT WASHINGTON  FOG       48  48 100 SW32        N/A  VSB 1/16
$$

VTZ005-007-008-211800-
VERMONT

CITY           SKY/WX    TMP DP  RH WIND       PRES   REMARKS
ST JOHNSBURY     N/A     75  59  57 MISG      29.74F
MONTPELIER     SUNNY     75  59  57 S14G24    29.79F
BURLINGTON     PTSUNNY   79  59  50 S24G31    29.68F
$$

MAZ007-012-024-CTZ003-RIZ002-NYZ038-NYZ072-211800-
SOUTHERN NEW ENGLAND AND NY

CITY           SKY/WX    TMP DP  RH WIND       PRES   REMARKS
BOSTON         PTSUNNY   81  66  60 S16       29.81F
WORCESTER      PTSUNNY   73  67  81 S9        29.84F
NANTUCKET      CLOUDY    71  67  87 SE13      29.83F FOG
PROVIDENCE     CLOUDY    74  69  85 S8        29.83F
HARTFORD       CLOUDY    76  68  76 SW3       29.79F
ALBANY         PTSUNNY   77  60  55 S16G23    29.76F
NEW YORK CITY  CLOUDY    73  67  81 NE6       29.78F
$$

ANZ081-ANZ082-ANZ150-NHZ014-MEZ023>029-211800-
COASTAL MARINE OBSERVATIONS

STATION/POSITION TIME  TEMP    WIND        PRES    WAVE
                       AIR SEA DIR/SP/G            HT/PER
                 (UTC) (F)     (DEG/KT/KT) (MB)    (FT/S)
MOUNT DESERT ROC 1600   59                 1013.8
MATINICUS ROCK   1700          170/ 16/ 17 1011.5F
PORTLAND WX BUOY 1650   63 59  180/ 14/ 17 1010.4F   3/ 5
WELLS            1600   65 57  180/ 11/ 13 1011.1F
ISLE OF SHOALS   1700   65     150/ 21/ 22 1009.0F
JEFFREYS LEDGE   1621      60                N/A     4/ 5
CASHES LEDGE BUO 1650   65 62              1011.3F   3/ 5
$$

.............KEY..............
   WCI - WIND CHILL
   TC  - TEMPERATURE IN CELSIUS
   VSB - VISIBILITY IN MILES
   HX  - HEAT INDEX
   FAIR- INDICATES FEW OR NO CLOUDS BELOW 12,000 FT, WITH NO
         SIGNIFICANT WEATHER AND/OR OBSTRUCTIONS TO VISIBILITY.





USA.gov is the U.S. government's official web portal to all federal, state and local government web resources and services.